GOPTI EGBS-EGBO

Flight info

Callsign GOPTI
Flight time 0h 24m
Altitude 3500
Route VFR
Aircraft P28A/L-SDFG/C

Departure

Time 2026-05-01 09:09
Airport Shobdon Airfield (EGBS)

Arrival

Time 2026-05-01 09:33
Airport Wolverhampton Halfpenny Green Airport (EGBO)
Time Latitude Longitude Altitude Speed Heading
2026-05-01 09:02 52.24269 -2.88264 312 ft 0 kts 172°
2026-05-01 09:06 52.24246 -2.88264 315 ft 10 kts 192°
2026-05-01 09:07 52.24223 -2.88414 316 ft 21 kts 263°
2026-05-01 09:07 52.24205 -2.88719 311 ft 29 kts 263°
2026-05-01 09:07 52.24132 -2.88871 314 ft 14 kts 163°
2026-05-01 09:07 52.24114 -2.88780 316 ft 19 kts 83°
2026-05-01 09:08 52.24152 -2.88273 316 ft 69 kts 82°
2026-05-01 09:08 52.24220 -2.87419 471 ft 76 kts 84°
2026-05-01 09:08 52.24287 -2.86577 666 ft 74 kts 84°
2026-05-01 09:08 52.24341 -2.85760 883 ft 72 kts 85°
2026-05-01 09:09 52.24453 -2.84946 1073 ft 79 kts 63°
2026-05-01 09:09 52.24718 -2.84129 1290 ft 82 kts 65°
2026-05-01 09:09 52.25002 -2.83297 1524 ft 86 kts 61°
2026-05-01 09:09 52.25342 -2.82465 1747 ft 91 kts 57°
2026-05-01 09:10 52.25740 -2.81648 1968 ft 92 kts 56°
2026-05-01 09:10 52.26141 -2.80814 2191 ft 94 kts 57°
2026-05-01 09:10 52.26532 -2.79987 2440 ft 91 kts 57°
2026-05-01 09:10 52.26933 -2.79181 2648 ft 92 kts 57°
2026-05-01 09:11 52.27324 -2.78360 2865 ft 94 kts 58°
2026-05-01 09:11 52.27788 -2.77550 3005 ft 101 kts 53°
2026-05-01 09:11 52.28244 -2.76669 3212 ft 100 kts 57°
2026-05-01 09:11 52.28682 -2.75783 3400 ft 101 kts 59°
2026-05-01 09:12 52.29149 -2.74928 3583 ft 102 kts 53°
2026-05-01 09:12 52.29628 -2.74095 3776 ft 100 kts 55°
2026-05-01 09:12 52.30081 -2.73225 3948 ft 101 kts 56°
2026-05-01 09:12 52.30557 -2.72356 3999 ft 103 kts 56°
2026-05-01 09:13 52.31033 -2.71494 4008 ft 103 kts 55°
2026-05-01 09:13 52.31518 -2.70657 4034 ft 101 kts 55°
2026-05-01 09:13 52.32005 -2.69826 4048 ft 101 kts 54°
2026-05-01 09:13 52.32492 -2.68995 4057 ft 102 kts 55°
2026-05-01 09:14 52.32981 -2.68155 4071 ft 102 kts 54°
2026-05-01 09:14 52.33468 -2.67311 4086 ft 102 kts 54°
2026-05-01 09:14 52.33956 -2.66468 4098 ft 102 kts 54°
2026-05-01 09:14 52.34444 -2.65630 4134 ft 100 kts 54°
2026-05-01 09:15 52.34931 -2.64798 4135 ft 103 kts 55°
2026-05-01 09:15 52.35421 -2.63964 4165 ft 101 kts 54°
2026-05-01 09:15 52.35909 -2.63128 4171 ft 103 kts 54°
2026-05-01 09:15 52.36400 -2.62283 4202 ft 103 kts 55°
2026-05-01 09:16 52.36897 -2.61436 4229 ft 103 kts 54°
2026-05-01 09:16 52.37353 -2.60536 4245 ft 101 kts 66°
2026-05-01 09:16 52.37758 -2.59617 4310 ft 100 kts 63°
2026-05-01 09:17 52.38580 -2.57748 4357 ft 103 kts 64°
2026-05-01 09:17 52.39000 -2.56816 4421 ft 101 kts 63°
2026-05-01 09:17 52.39808 -2.55055 4252 ft 94 kts 64°
2026-05-01 09:18 52.40197 -2.54197 4141 ft 94 kts 64°
2026-05-01 09:18 52.40983 -2.52433 3946 ft 97 kts 64°
2026-05-01 09:19 52.41773 -2.50650 3713 ft 97 kts 64°
2026-05-01 09:19 52.42166 -2.49758 3589 ft 97 kts 64°
2026-05-01 09:19 52.42554 -2.48862 3517 ft 95 kts 64°
2026-05-01 09:20 52.43316 -2.47088 3257 ft 96 kts 65°
2026-05-01 09:20 52.44048 -2.45314 3024 ft 96 kts 63°
2026-05-01 09:21 52.44785 -2.43512 2871 ft 96 kts 65°
2026-05-01 09:21 52.45149 -2.42607 2816 ft 95 kts 63°
2026-05-01 09:21 52.45976 -2.40880 2622 ft 100 kts 51°
2026-05-01 09:22 52.46911 -2.39330 2535 ft 94 kts 54°
2026-05-01 09:22 52.47729 -2.37532 2391 ft 102 kts 69°
2026-05-01 09:23 52.48050 -2.36475 2374 ft 104 kts 70°
2026-05-01 09:23 52.48777 -2.34445 2412 ft 103 kts 66°
2026-05-01 09:24 52.49471 -2.32346 2345 ft 108 kts 69°
2026-05-01 09:24 52.49797 -2.31232 2283 ft 111 kts 70°
2026-05-01 09:24 52.50437 -2.29005 2291 ft 105 kts 71°
2026-05-01 09:25 52.50966 -2.26896 2219 ft 98 kts 83°
2026-05-01 09:25 52.51276 -2.24801 2085 ft 91 kts 85°
2026-05-01 09:26 52.51645 -2.23929 2071 ft 102 kts 27°
2026-05-01 09:26 52.52943 -2.24535 2059 ft 96 kts 332°
2026-05-01 09:26 52.53238 -2.25331 2023 ft 80 kts 252°
2026-05-01 09:27 52.52661 -2.26755 1876 ft 69 kts 225°
2026-05-01 09:27 52.52362 -2.27357 1718 ft 70 kts 221°
2026-05-01 09:27 52.51972 -2.27726 1634 ft 67 kts 161°
2026-05-01 09:28 52.51577 -2.27225 1596 ft 76 kts 142°
2026-05-01 09:28 52.51187 -2.26679 1588 ft 75 kts 144°
2026-05-01 09:28 52.50788 -2.26107 1613 ft 81 kts 122°
2026-05-01 09:28 52.50910 -2.25136 1665 ft 92 kts 78°
2026-05-01 09:29 52.51314 -2.23234 1473 ft 89 kts 78°
2026-05-01 09:29 52.51608 -2.22410 1336 ft 86 kts 28°
2026-05-01 09:30 52.52746 -2.23002 1213 ft 88 kts 323°
2026-05-01 09:30 52.53239 -2.23557 1167 ft 84 kts 321°
2026-05-01 09:30 52.54145 -2.24757 1055 ft 80 kts 314°
2026-05-01 09:31 52.54582 -2.25344 1060 ft 80 kts 319°
2026-05-01 09:31 52.54722 -2.26143 1033 ft 76 kts 253°
2026-05-01 09:31 52.54355 -2.27675 937 ft 70 kts 227°
2026-05-01 09:32 52.53902 -2.27676 855 ft 75 kts 146°
2026-05-01 09:32 52.53036 -2.26894 655 ft 69 kts 159°
2026-05-01 09:32 52.52605 -2.26586 514 ft 68 kts 158°
2026-05-01 09:33 52.52178 -2.26275 331 ft 65 kts 161°
2026-05-01 09:33 52.51808 -2.26004 279 ft 50 kts 155°
2026-05-01 09:33 52.51676 -2.26117 271 ft 23 kts 277°
2026-05-01 09:34 52.51686 -2.26389 266 ft 18 kts 249°
2026-05-01 09:34 52.51609 -2.26444 263 ft 10 kts 201°
2026-05-01 09:34 52.51545 -2.26465 266 ft 1 kts 188°